STARLINK-36090, 66855

Orbit data source: Space-Track

STARLINK-36090, 66855 is a payload satellite owned by SpaceX/Seattle (US) in LEO that was launched on Tue, 02 Dec 2025 UTC via an FALCON 9 launch vehicle from the Air Force Eastern Test Range (AFETR). Payload-class satellites include a variety of spacecraft equipped with specific instruments for various scientific and technological missions. These include communications satellites like Starlink; space stations such as the ISS; scientific satellites like the Hubble; Earth observation satellites from companies like Planet Labs, Umbra, and HawkEye 360; GPS; miniature CubeSats for education and research; and military/defense satellites.

Loading next visibility...
Identifier
66855, 2025-281H
Orbit
LEO
Country
Flag of USUS
Related business
Manufacturer
SpaceX/Seattle
Mission
Operational Commercial Communications
Bus & Motor
STARLINK V2MO, Unknown motor
Mass
575 kg wet, ~530 kg dry
Launch date (UTC)
2025-12-02 (7 months ago)
Launch vehicle
FALCON 9
Launch site
Air Force Eastern Test Range (AFETR)
Object type
Payload
Rocket body
Debris
Shape & HBR
Box + 2 Pan, 17.7 m
Radar Cross Section
36.964 m², Large (>1 m²)

Expand to show TLE details & history
Last TLE update: 16 hours ago

TLE from 16 hours ago
0 STARLINK-36090
1 66855U 25281H   26171.17471358  .00009616  00000-0  35836-3 0  9991
2 66855  42.9997 124.3122 0000764 272.6610  87.4155 15.27592769 31869
Epoch: 2026-06-20T04:11Z
TLE epoch observation values (Epoch: 2026-06-20T04:11:35.253Z)
Latitude
0.00005°
Longitude
153.02224°
Altitude
482.763 km
Speed
7.626 km/s
True Right ascension
08h 17m 14s
True Declination
0° 00' 00"
Sunlit
Object was in daylight at epoch
Visualization orbit readout
Latitude
Unknown
Longitude
Unknown
Altitude
Unknown
Speed
Unknown
Apparent Right ascension
Unknown
Apparent Declination
Unknown
Sunlit
N/A
Visualization observer readout
Local Sidereal Time
07:14:28
Azimuth
Unknown
Elevation
Unknown
Doppler factor
Unknown
Orbital elements
Apogee altitude
485.48 km
Perigee altitude
484.432 km
Semi-major axis
6,863.093 km
Eccentricity
0.00008
Inclination
42.9997°
RAAN
124.3122°
Arg. of periapsis
272.661°
True anomaly
87.42425°
Mean anomaly
87.4155°
Eccentric anomaly
87.41987°
Mean motion
3.81736 °/min
Orbital period
94.31 mins
BSTAR
0.00035836
Loading maneuver chart data...
Computing Atmospheric mass density...
Loading historical data...
Loading historical data...
Loading historical data...
Loading historical data...
Loading historical data...
Loading historical data...
Loading historical data...

Documentation

Showing up to 5 results
|